FENGYUN 1C DEB

Satellite information

Favourite Embed

Satellite Type and Status

DEBRISIN ORBIT

Key statistics

Satellite FENGYUN 1C DEB at a glance.

Uptime

9615

Days in orbit

Revolutions

≈ 14.2

Per day

Orbit

SSO

Sun Synchronous Orbit

Inclination

100.3

Latest

Satellite identification and parameters

Extended collection of information and parameters for FENGYUN 1C DEB.

Object identification

Identified? True

Debris? True

Object name: FENGYUN 1C DEB

International designator: 1999-025AYQ

Object number (NORAD): 30902

Object ID (CCSDS): 30902

Country: PEOPLES REPUBLIC OF CHINA (PRC)

Current information (Y/N): Y

RCS size: SMALL

Orbital parameters

Period: 101.445 minutes

Inclination: 100.2584 deg

SMA: 7205.238 km

Apoapsis: 905.161 km

Periapsis: 749.045 km

RAAN: 255.6291 deg

Eccentricy: 0.0108335

Argument of periapsis: 337.9608 deg

Mean anomaly: 21.6924 deg

Mean motion: 14.19483233 rev/day

Mean motion (dot): 0.00004627 rev/day2

B* drag term: 0.0020962 1/REarth

Two-line elements (TLE)

Creation date: Feb. 9, 2024, 2:14 a.m.

Reference frame: TEME

Reference center: EARTH

Epoch: Feb. 8, 2024, 10:02 a.m. UTC

TLE line 0: 0 FENGYUN 1C DEB

TLE line 1: 1 30902U 99025AYQ 24039.41825358 .00004627 00000-0 20962-2 0 9993

TLE line 2: 2 30902 100.2584 255.6291 0108335 337.9608 21.6924 14.19483233619123

Live tracking on map

Real-time ground track for satellite FENGYUN 1C DEB.

In-orbit conjunctions

A list of the most updated potential collisions computed for object FENGYUN 1C DEB.

Target Orbit TCA Probability of collision Miss distance Type
FENGYUN 1C DEB SSO 2024-11-12 13:13:38 0.002249871 132.0 (m) DEBRIS

Associated space launch

Chinese polar orbiting meteorological satellite

FENGYUN 1C DEB was lifted into orbit during the mission ‘Long March 4B | Feng Yun 1C’, on board a Long March 4B space rocket.

The launch took place on May 10, 1999, 1:33 a.m. from Launch Complex 7.

For more information about the launch, click the button.

Launch to space Long March 4B | Feng Yun 1C
Long March 4B | Feng Yun 1C

Agency: N/A

Status: Launch Successful

Launch date: May 10, 1999, 1:33 a.m. UTC

Rocket: Long March 4B

Launch pad: Launch Complex 7

Location: Taiyuan Satellite Launch Center, People's Republic of China

...

Latest news about this satellite

There are no fresh news available about this satellite. Check back as we update our databases every day.


Newsletter sign-up

Weekly statistics, charts and insights to help you stay on top of the space industry.